Location: Newark
(44.2003°N, 3.2583°E)
Time: 11:26:06
(UTC+00:00)

Explorer 7 - Pass Details

Date: 20 October 2019
Orbit: 485 x 680 km, 50.3° (Epoch: 20 November)

Event Time Altitude Azimuth Distance (km) Brightness Sun altitude
Rises 11:38:15 0° 243° (WSW) 2,548 10.5 35.4°
Reaches altitude 10° 11:40:25 10° 245° (WSW) 1,663 9.7 35.4°
Maximum altitude 11:44:10 81° 332° (NNW) 495 7.1 35.4°
Drops below altitude 10° 11:47:57 10° 61° (ENE) 1,685 9.1 35.3°
Sets 11:50:10 0° 62° (ENE) 2,586 10.0 35.3°
